EW6800 Weather Reports


Display with metric or nautical units.
time (UTC)temp
F
wind
direction
speed
MPH
gust
MPH
rain 1hr
in
rain 24hr
in
rain mn
in
humidity
%
barometer
mb
20260503015544 48 302 5.0 9.0 0.00 0.00 0.00 94 1011.1
20260503015044 48 301 5.0 9.0 0.00 0.00 0.00 93 1011.2
20260503014553 48 305 5.0 9.0 0.00 0.00 0.00 93 1011.3
20260503014044 49 317 5.0 9.0 0.00 0.00 0.00 94 1011.3
20260503013544 48 304 4.0 9.0 0.00 0.00 0.00 93 1011.3
20260503013050 49 311 4.0 9.0 0.00 0.00 0.00 93 1011.3
20260503012544 49 307 4.0 9.0 0.00 0.00 0.00 93 1011.4
20260503012046 49 304 4.0 9.0 0.00 0.00 0.00 93 1011.4
20260503011604 49 302 4.0 8.0 0.00 0.00 0.00 93 1011.4
20260503011043 49 309 4.0 9.0 0.00 0.00 0.00 93 1011.4
20260503010544 49 298 5.0 9.0 0.00 0.00 0.00 93 1011.4
20260503010052 49 304 5.0 10.0 0.00 0.00 0.00 93 1011.4
20260503005547 49 303 5.0 10.0 0.00 0.00 0.00 93 1011.4
20260503005045 49 323 5.0 10.0 0.00 0.00 0.00 92 1011.4
20260503004553 49 288 4.0 10.0 0.00 0.00 0.00 92 1011.4
20260503004046 50 315 5.0 10.0 0.00 0.00 0.00 92 1011.4
20260503003544 50 306 4.0 9.0 0.00 0.00 0.00 92 1011.5
20260503003106 50 316 5.0 9.0 0.00 0.00 0.00 92 1011.6
20260503002544 50 319 5.0 11.0 0.00 0.00 0.00 91 1011.6
20260503002044 50 309 6.0 11.0 0.00 0.00 0.00 91 1011.6
20260503001552 50 298 5.0 10.0 0.00 0.00 0.00 91 1011.6
20260503001043 50 320 5.0 10.0 0.00 0.00 0.00 90 1011.6
20260503000543 51 291 6.0 10.0 0.00 0.00 0.00 90 1011.7
20260503000109 51 310 5.0 10.0 0.00 0.00 0.00 90 1011.7
20260502235545 51 317 6.0 10.0 0.00 0.00 0.00 90 1011.7
20260502235043 51 305 5.0 11.0 0.00 0.00 0.00 89 1011.6
20260502234555 52 298 6.0 11.0 0.00 0.00 0.00 89 1011.7
20260502234043 52 314 6.0 11.0 0.00 0.00 0.00 89 1011.7
20260502233544 52 302 5.0 9.0 0.00 0.00 0.00 88 1011.8
20260502233050 52 292 4.0 10.0 0.00 0.00 0.00 88 1011.9
20260502232544 53 311 6.0 10.0 0.00 0.00 0.00 88 1011.9
20260502232044 53 302 5.0 10.0 0.00 0.00 0.00 87 1011.9
20260502231612 53 313 5.0 9.0 0.00 0.00 0.00 87 1011.9
20260502231044 53 310 5.0 9.0 0.00 0.00 0.00 87 1012.1
20260502230544 54 292 6.0 11.0 0.00 0.00 0.00 86 1012.2
20260502230048 54 314 5.0 11.0 0.00 0.00 0.00 86 1012.2
20260502225543 54 309 4.0 10.0 0.00 0.00 0.00 86 1012.5
20260502225043 54 301 5.0 9.0 0.00 0.00 0.00 86 1012.5
20260502224559 54 303 5.0 9.0 0.00 0.00 0.00 86 1012.5
20260502224044 54 311 4.0 9.0 0.00 0.00 0.00 86 1012.7
20260502223544 54 309 5.0 8.0 0.00 0.00 0.00 87 1012.8
20260502223055 54 319 4.0 9.0 0.00 0.00 0.00 88 1012.8
20260502222544 54 310 4.0 9.0 0.00 0.00 0.00 87 1012.8
20260502222043 54 306 4.0 9.0 0.00 0.00 0.00 87 1012.8
20260502221556 54 294 4.0 8.0 0.00 0.00 0.00 88 1012.9
20260502221044 54 318 4.0 8.0 0.00 0.00 0.00 89 1013.1
20260502220544 54 313 4.0 8.0 0.00 0.00 0.00 89 1013.1
20260502220050 53 302 3.0 8.0 0.00 0.00 0.00 90 1013.2
20260502215544 53 311 4.0 8.0 0.00 0.00 0.00 89 1013.1
20260502215043 53 304 4.0 8.0 0.00 0.00 0.00 90 1013.2
20260502214550 53 294 3.0 8.0 0.00 0.00 0.00 90 1013.3
20260502214043 53 300 3.0 8.0 0.00 0.00 0.00 91 1013.2
20260502213544 53 311 3.0 9.0 0.00 0.00 0.00 91 1013.2
20260502213051 53 315 4.0 9.0 0.00 0.00 0.00 91 1013.2
20260502212546 54 305 4.0 8.0 0.00 0.00 0.00 91 1013.1
20260502212042 54 319 4.0 8.0 0.00 0.00 0.00 92 1013.3
20260502211554 54 304 4.0 8.0 0.00 0.00 0.00 94 1013.2
20260502211047 54 300 2.0 7.0 0.00 0.00 0.00 93 1013.3
20260502210543 53 297 3.0 7.0 0.00 0.00 0.00 94 1013.3
20260502210052 53 322 3.0 7.0 0.00 0.00 0.00 95 1013.3
20260502205548 53 302 3.0 6.0 0.00 0.00 0.00 95 1013.4
20260502205044 53 304 3.0 5.0 0.00 0.00 0.00 95 1013.4
20260502204552 53 311 2.0 6.0 0.00 0.00 0.00 96 1013.6
20260502204044 53 311 2.0 6.0 0.00 0.00 0.00 96 1013.7
20260502203544 53 315 1.0 3.0 0.00 0.00 0.00 96 1013.6
20260502203055 52 302 2.0 4.0 0.00 0.00 0.00 96 1013.7
20260502202544 52 302 2.0 4.0 0.00 0.00 0.00 96 1013.8
20260502202044 52 302 2.0 5.0 0.00 0.00 0.00 96 1013.8
20260502201548 52 309 2.0 5.0 0.00 0.00 0.00 96 1014.0
20260502201043 52 319 2.0 4.0 0.00 0.00 0.00 96 1014.0
20260502200544 52 323 1.0 3.0 0.00 0.00 0.00 96 1014.1
20260502200052 52 0 1.0 3.0 0.00 0.00 0.00 96 1014.3
20260502195543 52 333 1.0 4.0 0.00 0.00 0.00 96 1014.4
20260502195043 52 0 1.0 4.0 0.00 0.00 0.00 96 1014.4
20260502194558 53 355 0.0 3.0 0.00 0.00 0.00 97 1014.4
20260502194043 52 321 0.0 3.0 0.00 0.00 0.00 96 1014.6
20260502193544 52 284 0.0 3.0 0.00 0.00 0.00 96 1014.5
20260502193104 52 285 1.0 3.0 0.00 0.00 0.00 97 1014.6
20260502192545 52 0 1.0 3.0 0.00 0.00 0.00 97 1014.4
20260502192043 52 282 0.0 2.0 0.00 0.00 0.00 96 1014.5
20260502191559 52 0 0.0 2.0 0.00 0.00 0.00 96 1014.5
20260502191045 52 0 0.0 2.0 0.00 0.00 0.00 97 1014.5
20260502190544 52 0 0.0 2.0 0.00 0.00 0.00 96 1014.5
20260502190052 52 0 0.0 3.0 0.00 0.00 0.00 97 1014.5
20260502185543 52 0 0.0 3.0 0.00 0.00 0.00 96 1014.5
20260502185043 51 304 1.0 3.0 0.00 0.00 0.00 97 1014.5
20260502184557 51 267 1.0 3.0 0.00 0.00 0.00 97 1014.5
20260502184044 51 0 0.0 3.0 0.00 0.00 0.00 97 1014.4
20260502183544 51 271 0.0 4.0 0.00 0.00 0.00 96 1014.5
20260502183048 50 271 2.0 4.0 0.00 0.00 0.00 97 1014.4
20260502182544 50 309 1.0 3.0 0.00 0.00 0.00 96 1014.5
20260502182044 50 0 0.0 3.0 0.00 0.00 0.00 96 1014.5
20260502181552 50 283 1.0 3.0 0.00 0.00 0.00 96 1014.5
20260502181044 50 0 0.0 3.0 0.00 0.00 0.00 96 1014.4
20260502180543 50 238 0.0 4.0 0.00 0.00 0.00 96 1014.5
20260502164046 47 317 2.0 4.0 0.00 0.00 0.00 96 1014.1
20260502163544 47 317 2.0 4.0 0.00 0.00 0.00 96 1014.0
20260502163051 47 317 0.0 3.0 0.00 0.00 0.00 96 1014.0
20260502162546 47 317 0.0 3.0 0.00 0.00 0.00 96 1014.0
20260502162042 47 317 1.0 3.0 0.00 0.00 0.00 96 1014.0
20260502161608 47 317 1.0 3.0 0.00 0.00 0.00 96 1014.0
20260502161041 47 317 1.0 3.0 0.00 0.00 0.00 96 1014.0
20260502160542 47 315 1.0 3.0 0.00 0.00 0.00 96 1014.0
20260502160105 47 316 1.0 3.0 0.00 0.00 0.00 96 1014.0
20260502152043 46 315 1.0 3.0 0.00 0.00 0.00 96 1013.5
20260502151551 46 0 0.0 0.0 0.00 0.00 0.00 96 1013.4
20260502151042 46 0 0.0 0.0 0.00 0.00 0.00 96 1013.4
20260502150542 47 0 0.0 0.0 0.00 0.00 0.00 96 1013.4
20260502130543 46 315 1.0 4.0 0.00 0.00 0.00 96 1012.8
20260502130107 46 316 2.0 4.0 0.00 0.00 0.00 96 1012.8
20260502123544 46 315 2.0 5.0 0.00 0.00 0.00 96 1012.5
20260502123121 46 314 3.0 5.0 0.00 0.00 0.00 96 1012.6
20260502122544 46 314 2.0 5.0 0.00 0.00 0.00 96 1012.5
20260502122045 46 314 2.0 5.0 0.00 0.00 0.00 96 1012.4
20260502121549 46 314 2.0 5.0 0.00 0.00 0.00 96 1012.4
20260502121046 46 314 2.0 5.0 0.00 0.00 0.00 96 1012.5
20260502120546 46 315 2.0 5.0 0.00 0.00 0.00 96 1012.5
20260502120124 46 314 2.0 5.0 0.00 0.00 0.00 96 1012.4
20260502115544 46 314 0.0 5.0 0.00 0.00 0.00 96 1012.5
20260502115046 46 314 1.0 5.0 0.00 0.00 0.00 96 1012.5
20260502114557 46 314 3.0 5.0 0.00 0.00 0.00 96 1012.5
20260502114045 46 306 3.0 4.0 0.00 0.00 0.00 96 1012.4
20260502113546 46 306 2.0 4.0 0.00 0.00 0.00 96 1012.3
20260502113055 46 306 2.0 3.0 0.00 0.00 0.00 96 1012.3
20260502112544 46 306 1.0 4.0 0.00 0.00 0.00 96 1012.3
20260502112044 46 306 2.0 4.0 0.00 0.00 0.00 96 1012.2
20260502111553 46 306 2.0 4.0 0.00 0.00 0.00 96 1012.2
20260502111046 46 309 2.0 4.0 0.00 0.00 0.00 96 1012.2
20260502110545 46 309 1.0 3.0 0.00 0.00 0.00 96 1012.2
20260502110055 46 309 1.0 3.0 0.00 0.00 0.00 96 1012.2
20260502105546 46 309 1.0 2.0 0.00 0.00 0.00 96 1012.3
20260502105044 46 0 0.0 1.0 0.00 0.00 0.00 96 1012.2
20260502104554 46 309 0.0 2.0 0.00 0.00 0.00 96 1012.3
20260502104046 46 0 0.0 3.0 0.00 0.00 0.00 96 1012.2
20260502103545 46 309 1.0 3.0 0.00 0.00 0.00 96 1012.4
20260502103052 46 309 2.0 4.0 0.00 0.00 0.00 95 1012.5
20260502102549 46 309 2.0 4.0 0.00 0.00 0.00 95 1012.6
20260502102045 46 320 2.0 4.0 0.00 0.00 0.00 95 1012.6
20260502101559 46 321 1.0 3.0 0.00 0.00 0.00 96 1012.5
20260502101048 46 321 1.0 3.0 0.00 0.00 0.00 96 1012.6
20260502100545 46 0 0.0 5.0 0.00 0.00 0.00 96 1012.7
20260502100212 46 321 2.0 5.0 0.00 0.00 0.00 96 1012.7
20260502091043 47 317 2.0 4.0 0.00 0.00 0.00 95 1013.2
20260502090544 47 0 0.0 1.0 0.00 0.00 0.00 96 1013.2
20260502071044 47 0 0.0 5.0 0.00 0.00 0.00 95 1013.7
20260502070545 48 317 2.0 5.0 0.00 0.00 0.00 95 1013.7
20260502070049 48 317 3.0 5.0 0.00 0.00 0.00 95 1013.7
20260502065545 48 303 3.0 5.0 0.00 0.00 0.00 95 1013.8
20260502065046 48 311 3.0 5.0 0.00 0.00 0.00 95 1013.7
20260502064547 48 309 2.0 5.0 0.00 0.00 0.00 95 1013.7
20260502064044 48 315 2.0 4.0 0.00 0.00 0.00 95 1013.8
20260502063545 48 315 2.0 4.0 0.00 0.00 0.00 95 1013.8
20260502063058 48 315 2.0 4.0 0.00 0.00 0.00 95 1013.8
20260502062545 48 304 2.0 4.0 0.00 0.00 0.00 95 1013.9
20260502062048 48 312 2.0 4.0 0.00 0.00 0.00 95 1014.0
20260502061550 48 312 2.0 4.0 0.00 0.00 0.00 95 1013.9
20260502061047 48 312 2.0 3.0 0.00 0.00 0.00 95 1013.9
20260502060545 48 312 1.0 3.0 0.00 0.00 0.00 95 1014.0
20260502060053 48 312 0.0 2.0 0.00 0.00 0.00 95 1014.0
20260502055545 48 312 1.0 2.0 0.00 0.00 0.00 94 1014.0
20260502055045 48 312 1.0 4.0 0.00 0.00 0.00 94 1014.2
20260502054551 48 312 2.0 4.0 0.00 0.00 0.00 95 1014.1
20260502054045 48 311 2.0 4.0 0.00 0.00 0.00 94 1014.2
20260502053545 48 312 2.0 5.0 0.00 0.00 0.00 94 1014.2
20260502053050 49 312 2.0 5.0 0.00 0.00 0.00 94 1014.1
20260502052544 49 309 3.0 5.0 0.00 0.00 0.00 94 1014.2
20260502052046 49 316 3.0 5.0 0.00 0.00 0.00 94 1014.2
20260502051552 49 308 2.0 4.0 0.00 0.00 0.00 94 1014.1
20260502051109 49 299 2.0 4.0 0.00 0.00 0.00 94 1014.2
20260502050543 49 322 2.0 5.0 0.00 0.00 0.00 94 1014.3
20260502050056 49 306 2.0 5.0 0.00 0.00 0.00 94 1014.3
20260502045542 49 312 3.0 5.0 0.00 0.00 0.00 93 1014.3
20260502045043 49 303 3.0 5.0 0.00 0.00 0.00 93 1014.2
20260502044551 49 298 3.0 5.0 0.00 0.00 0.00 93 1014.1
20260502044044 49 300 2.0 4.0 0.00 0.00 0.00 92 1014.1
20260502043543 50 302 2.0 4.0 0.00 0.00 0.00 92 1014.1
20260502043057 50 302 2.0 4.0 0.00 0.00 0.00 91 1014.1
20260502042543 51 301 2.0 4.0 0.00 0.00 0.00 89 1014.0
20260502042045 52 302 2.0 3.0 0.00 0.00 0.00 87 1013.9
20260502041557 54 28 0.0 2.0 0.00 0.00 0.00 87 1013.8
20260502041043 55 0 0.0 0.0 0.00 0.00 0.00 92 1013.8
20260502040543 55 0 0.0 2.0 0.00 0.00 0.00 93 1013.7
20260502040101 55 0 0.0 2.0 0.00 0.00 0.00 94 1013.7
20260502035543 54 324 0.0 2.0 0.00 0.00 0.00 94 1013.7
20260502035044 54 0 0.0 1.0 0.00 0.00 0.00 94 1013.5
20260502034558 54 0 0.0 2.0 0.00 0.00 0.00 94 1013.5
20260502034043 53 0 0.0 2.0 0.00 0.00 0.00 94 1013.4
20260502033544 52 324 0.0 2.0 0.00 0.00 0.00 94 1013.3
20260502033056 52 0 0.0 4.0 0.00 0.00 0.00 93 1013.3
20260502032543 51 0 0.0 4.0 0.00 0.00 0.00 92 1013.3
20260502032045 51 319 1.0 3.0 0.00 0.00 0.00 92 1013.4
20260502031556 51 319 0.0 4.0 0.00 0.00 0.00 92 1013.3
20260502031044 51 0 1.0 4.0 0.00 0.00 0.00 91 1013.3
20260502030544 51 314 1.0 3.0 0.00 0.00 0.00 91 1013.3
20260502030048 52 314 1.0 3.0 0.00 0.00 0.00 90 1013.3
20260502025545 52 314 1.0 3.0 0.00 0.00 0.00 90 1013.3
20260502025042 52 314 2.0 5.0 0.00 0.00 0.00 90 1013.2
20260502024609 52 311 1.0 5.0 0.00 0.00 0.00 89 1013.3
20260502024043 53 311 3.0 5.0 0.00 0.00 0.00 88 1013.2
20260502023544 53 302 3.0 5.0 0.00 0.00 0.00 87 1013.2
20260502023058 54 307 3.0 5.0 0.00 0.00 0.00 86 1013.3
20260502022543 54 311 3.0 5.0 0.00 0.00 0.00 85 1013.2
20260502022043 55 306 3.0 5.0 0.00 0.00 0.00 85 1013.2
20260502021558 55 302 2.0 5.0 0.00 0.00 0.00 85 1013.1
20260502021043 56 309 2.0 7.0 0.00 0.00 0.00 84 1013.1
20260502020543 56 310 2.0 8.0 0.00 0.00 0.00 83 1013.2